sat.trackr.live / text

‹ back to catalog

STARLINK-4437

NORAD 53506 · 2022-099AT

PAYLOAD ACTIVE UNKNOWN

§ Identity

Operator
Country
US
Launch date
2022-08-12
Launch site
AFWTR
Launch vehicle
Mass (kg)
RCS (m²)

Purposes: comms

External: N2YO · Heavens-Above · Gunter

§ Orbital elements

Epoch: 2026-08-24T18:41:28.000320Z

Period
87.93 min
Inclination
97.5814°
Eccentricity
0.0012131
Mean motion
16.37733367 rev/d
Perigee alt
163.9 km
Apogee alt
179.8 km
Semi-major
6,550.0 km
B*
5.0508e-4
RAAN
9.5968°
Arg perigee
283.6805°
Mean anomaly
76.3141°
Rev number
22,215

§ Raw data

STARLINK-44371 53506U 22099AT  26236.77879630  .04935813  26423-5  50508-3 0  99932 53506  97.5814   9.5968 0012131 283.6805  76.3141 16.37733367222152

JSON: /api/v1/satellites/53506 · /tle

For live sub-satellite position, see the globe view (requires WebGL).

§ Visibility from observer

Set your observer location to see the next 7 days of passes ≥ 10°. The values pass through the URL so the page stays shareable.

No JS? Fill the form by hand. The geolocation button needs JavaScript.